Regional Weather Roundup
Issued by NWS

Home | Current Version | Previous Version | Graphics & Text | Print | Product List | Glossary On
Versions: 1 2 3 4 5 6 7 8 9 10 11 12 13 14 15 16 17 18 19 20 21 22 23 24 25 26 27 28 29 30 31 32 33 34 35 36 37 38 39 40 41
000
ASUS45 KCYS 220010
RWRWY

WYOMING REGIONAL WEATHER ROUNDUP
NATIONAL WEATHER SERVICE CHEYENNE WY
600 PM MDT TUE OCT 21 2014

NOTE:  "FAIR" INDICATES FEW OR NO CLOUDS BELOW 12,000 FEET
WITH NO SIGNIFICANT WEATHER AND/OR OBSTRUCTIONS TO VISIBILITY.

WYZ001-220100-
YELLOWSTONE NATIONAL PARK

CITY           SKY/WX    TMP DP  RH WIND       PRES   REMARKS
LK YELLOWSTONE   N/A     35  24  64 W8G18     30.05S WCI  29
6HR MIN TEMP:  35; 6HR MAX TEMP:  39; 6HR PCP:  0.04;

W YELLOWSTONE  NOT AVBL

$$
WYZ002>013-054>058-071-098>099-220100-
NORTHERN WYOMING

CITY           SKY/WX    TMP DP  RH WIND       PRES   REMARKS
JACKSON        PTCLDY    45  28  53 S8        30.04S
CODY           PTCLDY   N/A N/A N/A W13G23    29.87R
GREYBULL       CLOUDY    67  33  28 NW12      29.77R
6HR MIN TEMP:  67; 6HR MAX TEMP:  73;

WORLAND        LGT RAIN  67  32  27 SW15      29.78R
6HR MIN TEMP:  66; 6HR MAX TEMP:  77; 6HR PCP: TRACE;

SHERIDAN       CLOUDY    72  32  23 SW17      29.70R
6HR MIN TEMP:  72; 6HR MAX TEMP:  82;

BUFFALO        CLOUDY    68  30  24 SW20G29   29.76S
6HR MIN TEMP:  68; 6HR MAX TEMP:  77; 6HR PCP: TRACE;

GILLETTE       MOCLDY    66  36  32 S9        29.74S
6HR MIN TEMP:  66; 6HR MAX TEMP:  77;

HULETT         FAIR      70  36  28 SW13G20   29.74
NEWCASTLE      FAIR      66  34  30 CALM      29.79

$$
WYZ014>020-022>026-101>103-220100-
CENTRAL WYOMING

CITY           SKY/WX    TMP DP  RH WIND       PRES   REMARKS
BIG PINEY      CLOUDY    47  28  47 N8        30.04S
6HR MIN TEMP:  43; 6HR MAX TEMP:  60; 6HR PCP:  0.06;

PINEDALE       MOCLDY    43  32  65 NW13      30.05S
DUBOIS         FAIR      43  21  42 W18       29.99R
LANDER         MOCLDY    62  32  32 SW10G35   29.87R
6HR MIN TEMP:  61; 6HR MAX TEMP:  71; 6HR PCP: TRACE;

RIVERTON       MOCLDY    60  36  40 W7        29.88R
6HR MIN TEMP:  57; 6HR MAX TEMP:  72; 6HR PCP: TRACE;

CASPER         CLOUDY    65  33  30 SW14      29.86R
6HR MIN TEMP:  65; 6HR MAX TEMP:  73;

DOUGLAS        CLOUDY    68  36  30 SW12      29.87R
6HR MIN TEMP:  68; 6HR MAX TEMP:  77;


$$
WYZ021-027>030-104>119-220100-
SOUTHERN WYOMING

CITY           SKY/WX    TMP DP  RH WIND       PRES   REMARKS
EVANSTON       MOCLDY    48  24  39 W14       30.06R
6HR MIN TEMP:  48; 6HR MAX TEMP:  59;

KEMMERER       PTCLDY    43  27  52 W15       30.04S
FORT BRIDGER   CLOUDY    51  30  44 NW20      30.06S
ROCK SPRINGS   MOCLDY    50  43  77 W7        30.01R
6HR MIN TEMP:  47; 6HR MAX TEMP:  65; 6HR PCP:  0.11;

DIXON          MOCLDY    60  40  48 S5        30.02S
RAWLINS        MOCLDY    58  37  45 W30G37    29.99R THUNDER
6HR MIN TEMP:  58; 6HR MAX TEMP:  66;

SARATOGA       FAIR      54  37  54 S13       30.03S
LARAMIE        CLOUDY    53  36  52 SW10      30.03R
6HR MIN TEMP:  53; 6HR MAX TEMP:  65; 6HR PCP: TRACE;

CHEYENNE       CLOUDY    61  37  41 W14       29.97F
6HR MIN TEMP:  61; 6HR MAX TEMP:  73; 6HR PCP: TRACE;

TORRINGTON     CLOUDY    68  44  42 CALM      29.85F
6HR MIN TEMP:  64; 6HR MAX TEMP:  79; 6HR PCP: TRACE;

PINE BLUFFS    FAIR      64  39  39 NW9       29.92R

$$



USA.gov is the U.S. government's official web portal to all federal, state and local government web resources and services.